Location: Newark
(25.0000°N, 73.5000°E)
Time: 12:08:07
(UTC+00:00)

Altair - Pass Details

Date: 07 March 2021
Orbit: 1501 x 1683 km, 47.2° (Epoch: 15 April)

Event Time Altitude Azimuth Distance (km) Brightness Sun altitude
Rises 19:34:40 0° 313° (NW) 4,741 - -69.5°
Reaches altitude 10° 19:37:42 10° 315° (NW) 3,780 - -69.3°
Maximum altitude 19:47:24 83° 43° (NE) 1,636 - -68.7°
Drops below altitude 10° 19:57:27 10° 132° (SE) 3,907 - -67.7°
Sets 20:00:37 0° 133° (SE) 4,907 - -67.4°
